FW7086 Weather Reports


Display with metric or nautical units.
time (UTC)temp
F
wind
direction
speed
MPH
gust
MPH
rain 1hr
in
rain 24hr
in
rain mn
in
humidity
%
barometer
mb
20260510084446 44 353 0.0 0.0 0.00 0.00 0.00 65 1016.8
20260510083942 44 354 0.0 0.0 0.00 0.00 0.00 65 1017.0
20260510083439 45 351 0.0 0.0 0.00 0.00 0.00 64 1016.9
20260510082934 46 351 0.0 0.0 0.00 0.00 0.00 62 1016.7
20260510082432 46 349 0.0 0.0 0.00 0.00 0.00 61 1016.8
20260510081931 46 1 0.0 0.0 0.00 0.00 0.00 60 1016.7
20260510081427 46 353 1.0 1.0 0.00 0.00 0.00 60 1016.3
20260510080924 46 22 0.0 0.0 0.00 0.00 0.00 60 1016.5
20260510080422 46 3 0.0 0.0 0.00 0.00 0.00 60 1016.2
20260510075920 47 356 0.0 0.0 0.00 0.00 0.00 59 1016.3
20260510075418 47 89 0.0 1.0 0.00 0.00 0.00 59 1016.0
20260510074914 47 4 1.0 2.0 0.00 0.00 0.00 59 1016.1
20260510074411 47 26 0.0 0.0 0.00 0.00 0.00 60 1016.0
20260510073908 47 72 0.0 1.0 0.00 0.00 0.00 61 1016.1
20260510073403 48 12 1.0 2.0 0.00 0.00 0.00 60 1016.1
20260510072859 48 11 2.0 2.0 0.00 0.00 0.00 60 1015.8
20260510072356 48 7 1.0 1.0 0.00 0.00 0.00 59 1015.9
20260510071852 48 357 1.0 1.0 0.00 0.00 0.00 60 1015.8
20260510071349 48 27 0.0 1.0 0.00 0.00 0.00 60 1015.8
20260510070848 49 348 3.0 4.0 0.00 0.00 0.00 60 1015.6
20260510070344 49 16 3.0 4.0 0.00 0.00 0.00 61 1015.5
20260510065838 49 44 0.0 1.0 0.00 0.00 0.00 60 1015.6
20260510065336 50 358 2.0 3.0 0.00 0.00 0.00 60 1015.5
20260510064832 50 2 3.0 3.0 0.00 0.00 0.00 60 1015.4
20260510064330 50 349 4.0 6.0 0.00 0.00 0.00 59 1015.3
20260510063826 50 3 5.0 6.0 0.00 0.00 0.00 62 1015.3
20260510063323 50 270 2.0 3.0 0.00 0.00 0.00 63 1015.1
20260510062819 49 8 0.0 1.0 0.00 0.00 0.00 65 1015.0
20260510062315 49 13 0.0 0.0 0.00 0.00 0.00 65 1014.9
20260510061810 49 5 0.0 0.0 0.00 0.00 0.00 66 1014.8
20260510061308 49 11 2.0 3.0 0.00 0.00 0.00 66 1014.9
20260510060804 49 21 0.0 0.0 0.00 0.00 0.00 67 1014.8
20260510060301 48 34 0.0 0.0 0.00 0.00 0.00 70 1014.5
20260510055758 47 26 0.0 0.0 0.00 0.00 0.00 74 1014.7
20260510055256 46 6 0.0 1.0 0.00 0.00 0.00 76 1014.4
20260510054755 46 4 0.0 0.0 0.00 0.00 0.00 75 1014.3
20260510054252 46 13 0.0 0.0 0.00 0.00 0.00 75 1014.1
20260510053752 47 30 0.0 0.0 0.00 0.00 0.00 74 1014.1
20260510053247 47 33 0.0 0.0 0.00 0.00 0.00 72 1014.1
20260510052743 48 143 0.0 0.0 0.00 0.00 0.00 73 1014.0
20260510052240 47 339 0.0 0.0 0.00 0.00 0.00 72 1013.9
20260510051735 47 351 0.0 0.0 0.00 0.00 0.00 72 1013.8
20260510051233 48 351 0.0 0.0 0.00 0.00 0.00 71 1013.8
20260510050729 48 23 0.0 0.0 0.00 0.00 0.00 71 1013.6
20260510050227 48 353 0.0 0.0 0.00 0.00 0.00 71 1013.6
20260510045723 48 357 0.0 0.0 0.00 0.00 0.00 71 1013.6
20260510045220 48 353 0.0 0.0 0.00 0.00 0.00 70 1013.6
20260510044716 48 350 0.0 0.0 0.00 0.00 0.00 70 1013.4
20260510044215 48 8 0.0 0.0 0.00 0.00 0.00 70 1013.2
20260510043709 48 8 0.0 0.0 0.00 0.00 0.00 69 1013.3
20260510043206 48 8 0.0 0.0 0.00 0.00 0.00 68 1013.3
20260510042703 48 359 0.0 0.0 0.00 0.00 0.00 67 1013.1
20260510042200 49 359 0.0 0.0 0.00 0.00 0.00 67 1013.1
20260510041657 49 358 0.0 0.0 0.00 0.00 0.00 67 1013.1
20260510041154 48 351 0.0 0.0 0.00 0.00 0.00 68 1012.8
20260510040651 49 358 0.0 0.0 0.00 0.00 0.00 67 1012.7
20260510040148 49 359 0.0 0.0 0.00 0.00 0.00 67 1012.8
20260510035643 49 345 0.0 0.0 0.00 0.00 0.00 65 1012.8
20260510035138 49 345 0.0 0.0 0.00 0.00 0.00 64 1012.9
20260510034636 50 345 0.0 0.0 0.00 0.00 0.00 64 1012.7
20260510034133 50 357 0.0 0.0 0.00 0.00 0.00 64 1012.7
20260510033629 50 2 0.0 0.0 0.00 0.00 0.00 63 1012.4
20260510033127 51 331 0.0 0.0 0.00 0.00 0.00 62 1012.6
20260510032623 50 218 0.0 0.0 0.00 0.00 0.00 62 1012.6
20260510032118 51 212 0.0 0.0 0.00 0.00 0.00 61 1012.5
20260510031613 51 211 0.0 0.0 0.00 0.00 0.00 60 1012.5
20260510031110 51 350 0.0 0.0 0.00 0.00 0.00 59 1012.5
20260510030605 51 355 0.0 0.0 0.00 0.00 0.00 59 1012.4
20260510030103 51 351 0.0 0.0 0.00 0.00 0.00 59 1012.3
20260510025600 52 342 0.0 0.0 0.00 0.00 0.00 57 1012.2
20260510025057 53 343 0.0 0.0 0.00 0.00 0.00 56 1012.1
20260510024554 53 327 0.0 0.0 0.00 0.00 0.00 55 1012.1
20260510024050 53 47 0.0 0.0 0.00 0.00 0.00 54 1011.8
20260510023547 54 142 0.0 1.0 0.00 0.00 0.00 53 1011.7
20260510023044 54 2 0.0 1.0 0.00 0.00 0.00 52 1011.8
20260510022543 54 1 0.0 0.0 0.00 0.00 0.00 52 1011.6
20260510022037 54 4 0.0 1.0 0.00 0.00 0.00 51 1011.4
20260510021534 54 8 0.0 1.0 0.00 0.00 0.00 51 1011.4
20260510021033 54 25 0.0 0.0 0.00 0.00 0.00 51 1011.3
20260510020532 55 44 0.0 0.0 0.00 0.00 0.00 52 1010.8
20260510020028 55 44 0.0 0.0 0.00 0.00 0.00 51 1011.0
20260510015524 55 28 0.0 0.0 0.00 0.00 0.00 50 1010.9
20260510015020 55 54 1.0 1.0 0.00 0.00 0.00 49 1010.8
20260510014517 55 30 0.0 0.0 0.00 0.00 0.00 49 1010.5
20260510014014 56 349 4.0 4.0 0.00 0.00 0.00 48 1010.3
20260510013509 56 9 1.0 1.0 0.00 0.00 0.00 48 1010.2
20260510013005 56 101 1.0 1.0 0.00 0.00 0.00 48 1010.2
20260510012504 57 22 1.0 1.0 0.00 0.00 0.00 48 1010.0
20260510012000 57 24 2.0 2.0 0.00 0.00 0.00 48 1009.9
20260510011455 57 355 0.0 0.0 0.00 0.00 0.00 48 1009.6
20260510010951 57 28 1.0 1.0 0.00 0.00 0.00 47 1009.7
20260510010449 57 15 2.0 3.0 0.00 0.00 0.00 48 1009.4
20260510005945 58 27 1.0 1.0 0.00 0.00 0.00 47 1009.2
20260510005441 58 300 1.0 1.0 0.00 0.00 0.00 46 1009.2
20260510004939 58 44 2.0 4.0 0.00 0.00 0.00 45 1009.0
20260510004436 59 359 3.0 6.0 0.00 0.00 0.00 45 1009.0
20260510003934 60 89 3.0 6.0 0.00 0.00 0.00 44 1009.1
20260510003431 60 358 3.0 3.0 0.00 0.00 0.00 43 1008.9
20260510002930 61 11 3.0 6.0 0.00 0.00 0.00 42 1008.8
20260510002427 61 12 3.0 4.0 0.00 0.00 0.00 42 1008.6
20260510001923 62 9 1.0 2.0 0.00 0.00 0.00 43 1008.4
20260510001421 63 61 2.0 3.0 0.00 0.00 0.00 42 1008.1
20260510000918 67 54 3.0 4.0 0.00 0.00 0.00 38 1008.0
20260510000415 70 7 1.0 2.0 0.00 0.00 0.00 33 1007.7
20260509235911 70 304 4.0 6.0 0.00 0.00 0.00 33 1007.7
20260509235408 70 349 3.0 4.0 0.00 0.00 0.00 33 1007.7
20260509234904 71 312 4.0 6.0 0.00 0.00 0.00 32 1007.5
20260509234401 71 35 3.0 3.0 0.00 0.00 0.00 32 1007.5
20260509233859 71 44 2.0 3.0 0.00 0.00 0.00 31 1007.3
20260509233357 71 330 5.0 6.0 0.00 0.00 0.00 31 1007.0
20260509232852 71 341 6.0 7.0 0.00 0.00 0.00 31 1007.3
20260509232350 71 344 5.0 7.0 0.00 0.00 0.00 31 1007.2
20260509231846 72 342 1.0 2.0 0.00 0.00 0.00 31 1006.9
20260509231343 72 335 2.0 3.0 0.00 0.00 0.00 31 1007.0
20260509230841 72 341 3.0 4.0 0.00 0.00 0.00 31 1006.9
20260509230337 72 286 2.0 3.0 0.00 0.00 0.00 31 1006.6
20260509225832 71 255 4.0 4.0 0.00 0.00 0.00 31 1006.9
20260509225330 72 261 4.0 4.0 0.00 0.00 0.00 31 1006.7
20260509224826 73 325 6.0 9.0 0.00 0.00 0.00 30 1006.6
20260509224322 73 327 6.0 7.0 0.00 0.00 0.00 30 1006.6
20260509223819 73 333 2.0 2.0 0.00 0.00 0.00 30 1006.6
20260509223316 73 310 5.0 7.0 0.00 0.00 0.00 31 1006.3
20260509222813 73 338 4.0 6.0 0.00 0.00 0.00 30 1006.4
20260509222308 73 330 3.0 3.0 0.00 0.00 0.00 30 1006.4
20260509221804 73 313 6.0 13.0 0.00 0.00 0.00 30 1006.1
20260509221301 74 273 5.0 7.0 0.00 0.00 0.00 29 1006.1
20260509220756 74 298 2.0 4.0 0.00 0.00 0.00 30 1006.2
20260509220253 74 242 7.0 9.0 0.00 0.00 0.00 28 1006.0
20260509215748 74 332 6.0 9.0 0.00 0.00 0.00 28 1006.0
20260509215245 75 289 9.0 15.0 0.00 0.00 0.00 27 1005.9
20260509214742 75 346 4.0 7.0 0.00 0.00 0.00 28 1005.8
20260509214239 74 319 5.0 7.0 0.00 0.00 0.00 29 1005.6
20260509213736 75 2 2.0 4.0 0.00 0.00 0.00 29 1005.4
20260509213232 75 202 6.0 11.0 0.00 0.00 0.00 29 1005.3
20260509212729 75 337 3.0 4.0 0.00 0.00 0.00 30 1005.6
20260509212226 75 195 4.0 6.0 0.00 0.00 0.00 30 1005.1
20260509211722 75 199 3.0 6.0 0.00 0.00 0.00 29 1005.3
20260509211219 76 37 3.0 6.0 0.00 0.00 0.00 30 1005.3
20260509210715 76 199 3.0 4.0 0.00 0.00 0.00 29 1005.2
20260509210213 76 212 4.0 6.0 0.00 0.00 0.00 28 1005.2
20260509205713 76 254 7.0 9.0 0.00 0.00 0.00 28 1005.2
20260509205212 76 142 8.0 11.0 0.00 0.00 0.00 29 1005.1
20260509204709 76 300 4.0 7.0 0.00 0.00 0.00 29 1005.1
20260509204205 75 249 2.0 4.0 0.00 0.00 0.00 30 1005.2
20260509203701 76 238 6.0 9.0 0.00 0.00 0.00 28 1004.9
20260509203200 75 199 5.0 10.0 0.00 0.00 0.00 29 1005.3
20260509202655 75 301 6.0 8.0 0.00 0.00 0.00 29 1005.0
20260509202150 75 277 4.0 6.0 0.00 0.00 0.00 30 1005.3
20260509201645 75 233 1.0 1.0 0.00 0.00 0.00 31 1005.0
20260509201143 75 332 2.0 4.0 0.00 0.00 0.00 30 1005.3
20260509200638 75 326 4.0 6.0 0.00 0.00 0.00 30 1005.3
20260509200134 75 195 6.0 8.0 0.00 0.00 0.00 30 1005.3
20260509195630 75 6 3.0 4.0 0.00 0.00 0.00 29 1005.5
20260509195125 75 324 4.0 4.0 0.00 0.00 0.00 30 1005.5
20260509194624 74 129 2.0 4.0 0.00 0.00 0.00 31 1005.5
20260509194122 74 283 6.0 10.0 0.00 0.00 0.00 30 1005.4
20260509193618 74 257 5.0 9.0 0.00 0.00 0.00 30 1005.4
20260509193114 73 344 3.0 4.0 0.00 0.00 0.00 30 1005.4
20260509192611 73 343 9.0 13.0 0.00 0.00 0.00 29 1005.4
20260509192105 74 288 10.0 13.0 0.00 0.00 0.00 29 1005.5
20260509191600 74 302 5.0 7.0 0.00 0.00 0.00 29 1005.4
20260509191057 74 271 5.0 8.0 0.00 0.00 0.00 29 1005.5
20260509190553 73 239 2.0 3.0 0.00 0.00 0.00 29 1005.3
20260509190051 74 233 9.0 14.0 0.00 0.00 0.00 29 1005.3
20260509185548 74 293 3.0 3.0 0.00 0.00 0.00 31 1005.2
20260509185044 73 171 1.0 1.0 0.00 0.00 0.00 30 1005.0
20260509184543 73 207 4.0 6.0 0.00 0.00 0.00 29 1005.3
20260509184039 74 355 4.0 7.0 0.00 0.00 0.00 29 1005.1
20260509183534 73 237 3.0 4.0 0.00 0.00 0.00 31 1005.3
20260509183031 72 22 2.0 2.0 0.00 0.00 0.00 31 1005.3
20260509182527 72 319 4.0 4.0 0.00 0.00 0.00 30 1005.2
20260509182024 73 145 2.0 3.0 0.00 0.00 0.00 30 1005.3
20260509181523 73 327 3.0 3.0 0.00 0.00 0.00 30 1005.3
20260509181020 73 188 4.0 6.0 0.00 0.00 0.00 29 1005.3
20260509180515 72 223 4.0 6.0 0.00 0.00 0.00 30 1005.5
20260509180014 72 126 4.0 6.0 0.00 0.00 0.00 30 1005.6
20260509175514 71 241 4.0 4.0 0.00 0.00 0.00 31 1005.5
20260509175011 72 269 5.0 7.0 0.00 0.00 0.00 30 1005.4
20260509174508 72 221 1.0 1.0 0.00 0.00 0.00 32 1005.6
20260509174002 72 250 4.0 6.0 0.00 0.00 0.00 31 1005.6
20260509173457 72 258 8.0 13.0 0.00 0.00 0.00 31 1005.6
20260509172953 72 357 6.0 9.0 0.00 0.00 0.00 33 1005.6
20260509172451 72 225 6.0 10.0 0.00 0.00 0.00 33 1005.5
20260509171946 71 121 3.0 4.0 0.00 0.00 0.00 34 1005.5
20260509171442 72 208 4.0 4.0 0.00 0.00 0.00 44 1005.6
20260509170939 72 294 2.0 4.0 0.00 0.00 0.00 46 1005.8
20260509170434 71 264 6.0 11.0 0.00 0.00 0.00 46 1005.5
20260509165930 71 189 1.0 1.0 0.00 0.00 0.00 48 1005.6
20260509165424 72 255 5.0 7.0 0.00 0.00 0.00 47 1006.0
20260509164920 69 169 2.0 2.0 0.00 0.00 0.00 49 1005.6
20260509164416 69 11 3.0 4.0 0.00 0.00 0.00 50 1005.8
20260509163912 69 268 4.0 6.0 0.00 0.00 0.00 47 1005.5
20260509163410 69 351 3.0 4.0 0.00 0.00 0.00 51 1005.8
20260509162909 69 208 4.0 4.0 0.00 0.00 0.00 50 1005.5
20260509162407 69 172 4.0 6.0 0.00 0.00 0.00 53 1005.9
20260509161903 69 277 7.0 10.0 0.00 0.00 0.00 52 1005.8
20260509161400 68 272 3.0 4.0 0.00 0.00 0.00 54 1005.6
20260509160855 68 11 1.0 1.0 0.00 0.00 0.00 53 1005.6
20260509160351 68 345 3.0 3.0 0.00 0.00 0.00 56 1005.6
20260509155846 68 222 3.0 3.0 0.00 0.00 0.00 58 1005.9
20260509155343 67 258 3.0 4.0 0.00 0.00 0.00 55 1005.8
20260509154839 67 209 2.0 2.0 0.00 0.00 0.00 59 1005.6
20260509154336 66 176 1.0 2.0 0.00 0.00 0.00 61 1005.6
20260509153833 65 160 2.0 2.0 0.00 0.00 0.00 63 1005.8
20260509153330 65 350 2.0 2.0 0.00 0.00 0.00 62 1005.6
20260509152827 66 190 4.0 7.0 0.00 0.00 0.00 63 1005.5
20260509152322 66 275 3.0 3.0 0.00 0.00 0.00 60 1005.8
20260509151821 66 200 4.0 6.0 0.00 0.00 0.00 61 1005.6
20260509151316 66 226 4.0 6.0 0.00 0.00 0.00 65 1005.9
20260509150815 65 210 3.0 3.0 0.00 0.00 0.00 65 1005.8
20260509150312 64 143 4.0 6.0 0.00 0.00 0.00 65 1005.6
20260509145809 64 175 2.0 4.0 0.00 0.00 0.00 66 1005.6
20260509145309 63 239 5.0 10.0 0.00 0.00 0.00 67 1005.8
20260509144806 63 182 5.0 7.0 0.00 0.00 0.00 68 1005.6
20260509144303 63 162 3.0 4.0 0.00 0.00 0.00 68 1005.6
20260509143800 63 208 1.0 4.0 0.00 0.00 0.00 69 1005.9
20260509143257 63 241 3.0 4.0 0.00 0.00 0.00 69 1005.8
20260509142753 63 202 5.0 8.0 0.00 0.00 0.00 69 1005.6
20260509142249 63 204 4.0 4.0 0.00 0.00 0.00 69 1005.4
20260509141745 62 194 2.0 3.0 0.00 0.00 0.00 70 1005.5
20260509141242 62 180 4.0 4.0 0.00 0.00 0.00 71 1005.4
20260509140739 62 145 4.0 6.0 0.00 0.00 0.00 71 1005.4
20260509140236 61 215 6.0 8.0 0.00 0.00 0.00 73 1005.3
20260509135733 61 274 5.0 7.0 0.00 0.00 0.00 73 1005.5
20260509135231 61 163 3.0 6.0 0.00 0.00 0.00 73 1005.2
20260509134728 60 183 3.0 4.0 0.00 0.00 0.00 76 1005.0
20260509134226 60 233 3.0 6.0 0.00 0.00 0.00 75 1005.3
20260509133723 59 169 6.0 10.0 0.00 0.00 0.00 76 1005.2
20260509133219 60 86 3.0 4.0 0.00 0.00 0.00 77 1005.3
20260509132718 59 36 5.0 6.0 0.00 0.00 0.00 78 1005.5
20260509132216 59 184 4.0 10.0 0.00 0.00 0.00 78 1005.6
20260509131712 59 171 2.0 3.0 0.00 0.00 0.00 78 1006.0
20260509131209 59 248 2.0 2.0 0.00 0.00 0.00 79 1005.8
20260509130705 58 208 5.0 7.0 0.00 0.00 0.00 79 1005.6
20260509130201 58 182 4.0 6.0 0.00 0.00 0.00 79 1005.6
20260509125658 58 232 3.0 3.0 0.00 0.00 0.00 80 1005.6
20260509125154 58 180 2.0 3.0 0.00 0.00 0.00 81 1005.4
20260509124651 57 164 1.0 1.0 0.00 0.00 0.00 82 1005.4
20260509124148 57 193 3.0 6.0 0.00 0.00 0.00 83 1005.5
20260509123646 57 209 3.0 4.0 0.00 0.00 0.00 83 1005.5
20260509123143 56 193 3.0 4.0 0.00 0.00 0.00 85 1005.5
20260509122638 56 168 4.0 6.0 0.00 0.00 0.00 85 1005.4
20260509122136 55 115 4.0 4.0 0.00 0.00 0.00 86 1005.4
20260509121632 55 190 3.0 4.0 0.00 0.00 0.00 87 1005.3
20260509121130 55 169 4.0 4.0 0.00 0.00 0.00 88 1005.3
20260509120628 54 209 4.0 8.0 0.00 0.00 0.00 89 1005.5
20260509120126 54 169 3.0 3.0 0.00 0.00 0.00 90 1005.4
20260509115623 54 103 3.0 3.0 0.00 0.00 0.00 90 1005.5
20260509115121 54 188 3.0 6.0 0.00 0.00 0.00 90 1005.4
20260509114618 54 149 3.0 4.0 0.00 0.00 0.00 90 1005.2
20260509114117 54 199 2.0 3.0 0.00 0.00 0.00 90 1005.3
20260509113615 54 233 3.0 4.0 0.00 0.00 0.00 90 1005.1
20260509113112 54 226 3.0 4.0 0.00 0.00 0.00 90 1005.3
20260509112608 53 174 3.0 3.0 0.00 0.00 0.00 90 1005.1
20260509112105 53 239 5.0 6.0 0.00 0.00 0.00 90 1005.0
20260509111603 54 193 1.0 2.0 0.00 0.00 0.00 90 1005.1
20260509111059 54 205 2.0 3.0 0.00 0.00 0.00 90 1005.0
20260509110557 54 230 1.0 1.0 0.00 0.00 0.00 89 1005.2
20260509110054 54 176 4.0 6.0 0.00 0.00 0.00 89 1004.7
20260509105552 54 194 2.0 3.0 0.00 0.00 0.00 89 1004.6
20260509105049 54 161 5.0 7.0 0.00 0.00 0.00 89 1004.8
20260509104546 54 180 2.0 3.0 0.00 0.00 0.00 89 1004.8
20260509104043 54 221 3.0 3.0 0.00 0.00 0.00 89 1004.9
20260509103541 54 228 4.0 6.0 0.00 0.00 0.00 89 1004.8
20260509103039 54 196 4.0 7.0 0.00 0.00 0.00 88 1004.6
20260509102536 54 166 7.0 9.0 0.00 0.00 0.00 88 1004.7
20260509102032 54 145 2.0 3.0 0.00 0.00 0.00 89 1004.6
20260509101529 54 142 2.0 2.0 0.00 0.00 0.00 89 1004.7
20260509101026 54 175 2.0 3.0 0.00 0.00 0.00 89 1004.8
20260509100523 54 135 2.0 2.0 0.00 0.00 0.00 89 1004.9
20260509100020 54 196 3.0 4.0 0.00 0.00 0.00 89 1004.9
20260509095517 54 155 1.0 2.0 0.00 0.00 0.00 89 1005.0
20260509095014 54 161 1.0 2.0 0.00 0.00 0.00 89 1005.2
20260509094510 54 158 2.0 3.0 0.00 0.00 0.00 89 1005.2
20260509094008 54 192 3.0 3.0 0.00 0.00 0.00 89 1005.2
20260509093506 53 183 2.0 3.0 0.00 0.00 0.00 90 1005.1
20260509093003 54 166 1.0 1.0 0.00 0.00 0.00 90 1005.4
20260509092500 53 212 1.0 2.0 0.00 0.00 0.00 90 1005.6
20260509091959 53 174 4.0 4.0 0.00 0.00 0.00 90 1005.4
20260509091456 53 172 1.0 1.0 0.00 0.00 0.00 90 1005.3
20260509090953 53 171 1.0 2.0 0.00 0.00 0.00 90 1005.2
20260509090450 53 220 2.0 3.0 0.00 0.00 0.00 90 1005.4
20260509085947 53 193 4.0 6.0 0.00 0.00 0.00 91 1005.4
20260509085444 53 176 3.0 4.0 0.00 0.00 0.00 91 1005.5
20260509084941 53 149 1.0 2.0 0.00 0.00 0.00 91 1005.6